Time,TemperatureF,DewpointF,PressureIn,WindDirection,WindDirectionDegrees,WindSpeedMPH,WindSpeedGustMPH,Humidity,HourlyPrecipIn,Conditions,Clouds,dailyrainin,SoftwareType,DateUTC
2013-01-25 00:02:00,17.0,3.0,-100.00,SSE,150,12.0,-999.0,52,0.00,,,-99.99,,2013-01-25 06:02:00,
2013-01-25 00:11:00,17.0,3.0,-100.00,SSE,165,8.0,17.0,53,0.00,,,-99.99,,2013-01-25 06:11:00,
2013-01-25 00:21:00,17.0,3.0,-100.00,South,170,9.0,19.0,53,0.00,,,-99.99,,2013-01-25 06:21:00,
2013-01-25 00:32:00,17.0,3.0,-100.00,SSE,165,9.0,18.0,54,0.00,,,-99.99,,2013-01-25 06:32:00,
2013-01-25 00:42:00,17.0,4.0,-100.00,South,175,9.0,16.0,54,0.00,,,-99.99,,2013-01-25 06:42:00,
2013-01-25 00:52:00,17.0,4.0,-100.00,South,175,9.0,15.0,55,0.00,,,-99.99,,2013-01-25 06:52:00,
2013-01-25 01:02:00,17.0,4.0,-100.00,South,185,10.0,14.0,55,0.00,,,-99.99,,2013-01-25 07:02:00,
2013-01-25 01:11:00,17.0,4.0,-100.00,South,175,10.0,15.0,55,0.00,,,-99.99,,2013-01-25 07:11:00,
2013-01-25 01:21:00,17.0,4.0,-100.00,SSE,165,8.0,16.0,55,0.00,,,-99.99,,2013-01-25 07:21:00,
2013-01-25 01:32:00,17.0,4.0,-100.00,South,175,10.0,16.0,56,0.00,,,-99.99,,2013-01-25 07:32:00,
2013-01-25 01:42:00,17.0,5.0,-100.00,South,175,11.0,14.0,57,0.00,,,-99.99,,2013-01-25 07:42:00,
2013-01-25 01:51:00,17.0,6.0,-100.00,South,170,12.0,19.0,60,0.00,,,-99.99,,2013-01-25 07:51:00,
2013-01-25 02:01:00,17.0,6.0,-100.00,South,180,7.0,14.0,63,0.00,,,-99.99,,2013-01-25 08:01:00,
2013-01-25 02:11:00,17.0,8.0,-100.00,South,175,7.0,10.0,66,0.00,,,-99.99,,2013-01-25 08:11:00,
2013-01-25 02:21:00,17.0,8.0,-100.00,SSW,195,8.0,14.0,70,0.00,,,-99.99,,2013-01-25 08:21:00,
2013-01-25 02:32:00,16.0,9.0,-100.00,South,185,7.0,12.0,72,0.00,,,-99.99,,2013-01-25 08:32:00,
2013-01-25 02:41:00,16.0,10.0,-100.00,SSW,200,6.0,10.0,75,0.00,,,-99.99,,2013-01-25 08:41:00,
2013-01-25 02:52:00,16.0,10.0,-100.00,SSW,200,6.0,10.0,75,0.00,,,-99.99,,2013-01-25 08:52:00,
2013-01-25 03:01:00,17.0,10.0,-100.00,South,190,6.0,7.0,76,0.00,,,-99.99,,2013-01-25 09:01:00,
2013-01-25 03:11:00,17.0,10.0,-100.00,South,190,6.0,9.0,76,0.00,,,-99.99,,2013-01-25 09:11:00,
2013-01-25 03:21:00,17.0,11.0,-100.00,South,185,6.0,11.0,75,0.00,,,-99.99,,2013-01-25 09:21:00,
2013-01-25 03:31:00,17.0,10.0,-100.00,SSW,200,7.0,9.0,74,0.00,,,-99.99,,2013-01-25 09:31:00,
2013-01-25 03:42:00,17.0,10.0,-100.00,South,190,7.0,10.0,73,0.00,,,-99.99,,2013-01-25 09:42:00,
2013-01-25 03:51:00,17.0,10.0,-100.00,South,190,7.0,12.0,73,0.00,,,-99.99,,2013-01-25 09:51:00,
2013-01-25 04:02:00,17.0,10.0,-100.00,South,190,6.0,13.0,72,0.00,,,-99.99,,2013-01-25 10:02:00,
2013-01-25 04:12:00,17.0,10.0,-100.00,South,190,6.0,12.0,72,0.00,,,-99.99,,2013-01-25 10:12:00,
2013-01-25 04:21:00,17.0,10.0,-100.00,SSW,195,7.0,12.0,73,0.00,,,-99.99,,2013-01-25 10:21:00,
2013-01-25 04:32:00,17.0,11.0,-100.00,SSW,205,6.0,11.0,74,0.00,,,-99.99,,2013-01-25 10:32:00,
2013-01-25 04:42:00,17.0,11.0,-100.00,SSW,200,8.0,12.0,75,0.00,,,-99.99,,2013-01-25 10:42:00,
2013-01-25 04:51:00,17.0,11.0,-100.00,SW,215,6.0,9.0,75,0.00,,,-99.99,,2013-01-25 10:51:00,
2013-01-25 05:02:00,18.0,11.0,-100.00,SW,215,6.0,9.0,74,0.00,,,-99.99,,2013-01-25 11:02:00,
2013-01-25 05:11:00,18.0,11.0,-100.00,SW,215,7.0,9.0,73,0.00,,,-99.99,,2013-01-25 11:11:00,
2013-01-25 05:22:00,18.0,11.0,-100.00,SW,215,7.0,9.0,73,0.00,,,-99.99,,2013-01-25 11:22:00,
2013-01-25 05:32:00,17.0,10.0,-100.00,SSW,200,7.0,12.0,72,0.00,,,-99.99,,2013-01-25 11:32:00,
2013-01-25 05:42:00,16.0,9.0,-100.00,SSW,205,7.0,11.0,72,0.00,,,-99.99,,2013-01-25 11:42:00,
2013-01-25 05:52:00,16.0,8.0,-100.00,SSW,210,6.0,10.0,72,0.00,,,-99.99,,2013-01-25 11:52:00,
2013-01-25 06:02:00,15.0,9.0,-100.00,SW,215,7.0,10.0,73,0.00,,,-99.99,,2013-01-25 12:02:00,
2013-01-25 06:11:00,15.0,8.0,-100.00,SW,215,8.0,11.0,73,0.00,,,-99.99,,2013-01-25 12:11:00,
2013-01-25 06:22:00,15.0,8.0,-100.00,SSW,210,7.0,9.0,73,0.00,,,-99.99,,2013-01-25 12:22:00,
2013-01-25 06:32:00,15.0,8.0,-100.00,SSW,210,8.0,11.0,73,0.00,,,-99.99,,2013-01-25 12:32:00,
2013-01-25 06:42:00,14.0,7.0,-100.00,SSW,205,7.0,10.0,73,0.00,,,-99.99,,2013-01-25 12:42:00,
2013-01-25 06:52:00,13.0,6.0,-100.00,SSW,195,5.0,8.0,73,0.00,,,-99.99,,2013-01-25 12:52:00,
2013-01-25 07:02:00,13.0,6.0,-100.00,SSW,195,6.0,7.0,74,0.00,,,-99.99,,2013-01-25 13:02:00,
2013-01-25 07:11:00,14.0,7.0,-100.00,SSW,210,7.0,11.0,73,0.00,,,-99.99,,2013-01-25 13:11:00,
2013-01-25 07:22:00,14.0,7.0,-100.00,SSW,210,9.0,12.0,72,0.00,,,-99.99,,2013-01-25 13:22:00,
2013-01-25 07:32:00,14.0,7.0,-100.00,SSW,205,7.0,11.0,71,0.00,,,-99.99,,2013-01-25 13:32:00,
2013-01-25 07:42:00,14.0,7.0,-100.00,SSW,210,10.0,12.0,71,0.00,,,-99.99,,2013-01-25 13:42:00,
2013-01-25 07:52:00,14.0,7.0,-100.00,SSW,210,9.0,13.0,71,0.00,,,-99.99,,2013-01-25 13:52:00,
2013-01-25 08:03:00,14.0,7.0,-100.00,SSW,205,9.0,14.0,71,0.00,,,-99.99,,2013-01-25 14:03:00,
2013-01-25 08:12:00,14.0,6.0,-100.00,SW,215,9.0,11.0,71,0.00,,,-99.99,,2013-01-25 14:12:00,
2013-01-25 08:22:00,14.0,7.0,-100.00,SW,220,9.0,12.0,71,0.00,,,-99.99,,2013-01-25 14:22:00,
2013-01-25 08:32:00,15.0,7.0,-100.00,SW,220,9.0,12.0,71,0.00,,,-99.99,,2013-01-25 14:32:00,
2013-01-25 08:42:00,15.0,8.0,-100.00,SW,230,10.0,13.0,70,0.00,,,-99.99,,2013-01-25 14:42:00,
2013-01-25 08:52:00,16.0,8.0,-100.00,SW,235,10.0,16.0,69,0.00,,,-99.99,,2013-01-25 14:52:00,
2013-01-25 09:02:00,17.0,8.0,-100.00,WSW,240,12.0,17.0,68,0.00,,,-99.99,,2013-01-25 15:02:00,
2013-01-25 09:12:00,17.0,8.0,-100.00,WSW,245,14.0,21.0,67,0.00,,,-99.99,,2013-01-25 15:12:00,
2013-01-25 09:22:00,18.0,9.0,-100.00,WSW,255,14.0,18.0,67,0.00,,,-99.99,,2013-01-25 15:22:00,
2013-01-25 09:32:00,19.0,9.0,-100.00,West,260,17.0,20.0,65,0.00,,,-99.99,,2013-01-25 15:32:00,
2013-01-25 09:42:00,20.0,10.0,-100.00,West,270,16.0,21.0,65,0.00,,,-99.99,,2013-01-25 15:42:00,
2013-01-25 09:52:00,19.0,10.0,-100.00,West,270,14.0,20.0,65,0.00,,,-99.99,,2013-01-25 15:52:00,
2013-01-25 10:03:00,19.0,10.0,-100.00,West,270,16.0,21.0,65,0.00,,,-99.99,,2013-01-25 16:03:00,
2013-01-25 10:12:00,20.0,11.0,-100.00,West,265,13.0,18.0,66,0.00,,,-99.99,,2013-01-25 16:12:00,
2013-01-25 10:22:00,20.0,11.0,-100.00,West,270,12.0,17.0,66,0.00,,,-99.99,,2013-01-25 16:22:00,
2013-01-25 10:32:00,20.0,11.0,-100.00,West,265,12.0,17.0,67,0.00,,,-99.99,,2013-01-25 16:32:00,
2013-01-25 10:42:00,20.0,11.0,-100.00,West,275,14.0,16.0,68,0.00,,,-99.99,,2013-01-25 16:42:00,
2013-01-25 10:52:00,20.0,12.0,-100.00,West,270,14.0,18.0,69,0.00,,,-99.99,,2013-01-25 16:52:00,
2013-01-25 11:02:00,20.0,12.0,-100.00,West,265,13.0,19.0,69,0.00,,,-99.99,,2013-01-25 17:02:00,
2013-01-25 11:12:00,20.0,12.0,-100.00,West,275,15.0,20.0,70,0.00,,,-99.99,,2013-01-25 17:12:00,
2013-01-25 11:22:00,21.0,13.0,-100.00,WNW,295,14.0,21.0,70,0.00,,,-99.99,,2013-01-25 17:22:00,
2013-01-25 11:32:00,22.0,14.0,-100.00,WNW,285,15.0,19.0,70,0.00,,,-99.99,,2013-01-25 17:32:00,
2013-01-25 11:43:00,22.0,14.0,-100.00,West,280,12.0,20.0,70,0.00,,,-99.99,,2013-01-25 17:43:00,
2013-01-25 11:52:00,22.0,14.0,-100.00,West,275,15.0,21.0,70,0.00,,,-99.99,,2013-01-25 17:52:00,
2013-01-25 12:03:00,23.0,15.0,-100.00,WNW,285,14.0,20.0,70,0.00,,,-99.99,,2013-01-25 18:03:00,
2013-01-25 12:12:00,23.0,15.0,-100.00,West,275,14.0,24.0,70,0.00,,,-99.99,,2013-01-25 18:12:00,
2013-01-25 12:23:00,23.0,15.0,-100.00,WNW,290,16.0,24.0,70,0.00,,,-99.99,,2013-01-25 18:23:00,
2013-01-25 12:33:00,24.0,16.0,-100.00,WNW,285,21.0,27.0,70,0.00,,,-99.99,,2013-01-25 18:33:00,
2013-01-25 12:42:00,24.0,16.0,-100.00,WNW,295,22.0,26.0,69,0.00,,,-99.99,,2013-01-25 18:42:00,
2013-01-25 12:52:00,25.0,16.0,-100.00,WNW,290,19.0,27.0,68,0.00,,,-99.99,,2013-01-25 18:52:00,
2013-01-25 13:03:00,26.0,16.0,-100.00,WNW,300,23.0,35.0,67,0.00,,,-99.99,,2013-01-25 19:03:00,
2013-01-25 13:12:00,26.0,16.0,-100.00,NW,305,21.0,31.0,66,0.00,,,-99.99,,2013-01-25 19:12:00,
2013-01-25 13:22:00,26.0,16.0,-100.00,WNW,300,22.0,31.0,65,0.00,,,-99.99,,2013-01-25 19:22:00,
2013-01-25 13:32:00,26.0,17.0,-100.00,NW,305,22.0,32.0,66,0.00,,,-99.99,,2013-01-25 19:32:00,
2013-01-25 13:42:00,27.0,16.0,-100.00,WNW,300,21.0,34.0,63,0.00,,,-99.99,,2013-01-25 19:42:00,
2013-01-25 13:52:00,28.0,15.0,-100.00,NW,305,28.0,34.0,58,0.00,,,-99.99,,2013-01-25 19:52:00,
2013-01-25 14:02:00,27.0,13.0,-100.00,NW,305,27.0,35.0,56,0.00,,,-99.99,,2013-01-25 20:02:00,
2013-01-25 14:12:00,26.0,12.0,-100.00,NW,305,27.0,35.0,54,0.00,,,-99.99,,2013-01-25 20:12:00,
2013-01-25 14:22:00,27.0,12.0,-100.00,WNW,295,23.0,32.0,52,0.00,,,-99.99,,2013-01-25 20:22:00,
2013-01-25 14:32:00,26.0,10.0,-100.00,NW,310,24.0,34.0,50,0.00,,,-99.99,,2013-01-25 20:32:00,
2013-01-25 14:42:00,25.0,7.0,-100.00,NW,310,29.0,37.0,47,0.00,,,-99.99,,2013-01-25 20:42:00,
2013-01-25 14:52:00,24.0,6.0,-100.00,NW,315,29.0,35.0,45,0.00,,,-99.99,,2013-01-25 20:52:00,
2013-01-25 15:02:00,24.0,6.0,-100.00,NW,310,26.0,33.0,44,0.00,,,-99.99,,2013-01-25 21:02:00,
2013-01-25 15:12:00,23.0,4.0,-100.00,WNW,300,27.0,34.0,43,0.00,,,-99.99,,2013-01-25 21:12:00,
2013-01-25 15:22:00,23.0,4.0,-100.00,WNW,300,24.0,31.0,43,0.00,,,-99.99,,2013-01-25 21:22:00,
2013-01-25 15:32:00,22.0,4.0,-100.00,NW,305,24.0,30.0,43,0.00,,,-99.99,,2013-01-25 21:32:00,
2013-01-25 15:42:00,22.0,3.0,-100.00,NW,305,21.0,30.0,43,0.00,,,-99.99,,2013-01-25 21:42:00,
2013-01-25 15:52:00,22.0,3.0,-100.00,NNW,335,21.0,30.0,43,0.00,,,-99.99,,2013-01-25 21:52:00,
2013-01-25 16:02:00,21.0,3.0,-100.00,WNW,300,21.0,30.0,45,0.00,,,-99.99,,2013-01-25 22:02:00,
2013-01-25 16:11:00,21.0,3.0,-100.00,NW,320,21.0,29.0,44,0.00,,,-99.99,,2013-01-25 22:11:00,
2013-01-25 16:22:00,21.0,3.0,-100.00,NW,310,19.0,26.0,45,0.00,,,-99.99,,2013-01-25 22:22:00,
2013-01-25 16:32:00,20.0,3.0,-100.00,NW,305,17.0,26.0,46,0.00,,,-99.99,,2013-01-25 22:32:00,
2013-01-25 16:42:00,19.0,2.0,-100.00,WNW,300,16.0,26.0,46,0.00,,,-99.99,,2013-01-25 22:42:00,
2013-01-25 16:51:00,19.0,2.0,-100.00,NW,315,18.0,25.0,47,0.00,,,-99.99,,2013-01-25 22:51:00,
2013-01-25 17:02:00,18.0,1.0,-100.00,NW,305,21.0,27.0,47,0.00,,,-99.99,,2013-01-25 23:02:00,
2013-01-25 17:12:00,17.0,1.0,-100.00,NW,305,17.0,22.0,48,0.00,,,-99.99,,2013-01-25 23:12:00,
2013-01-25 17:22:00,17.0,1.0,-100.00,NW,305,17.0,22.0,48,0.00,,,-99.99,,2013-01-25 23:22:00,
2013-01-25 17:32:00,17.0,1.0,-100.00,NW,305,17.0,24.0,50,0.00,,,-99.99,,2013-01-25 23:32:00,
2013-01-25 17:42:00,16.0,1.0,-100.00,NW,305,16.0,21.0,51,0.00,,,-99.99,,2013-01-25 23:42:00,
2013-01-25 17:52:00,15.0,1.0,-100.00,NW,305,15.0,19.0,52,0.00,,,-99.99,,2013-01-25 23:52:00,
2013-01-25 18:02:00,15.0,1.0,-100.00,NW,325,11.0,20.0,53,0.00,,,-99.99,,2013-01-26 00:02:00,
2013-01-25 18:11:00,14.0,1.0,-100.00,NNW,330,14.0,19.0,55,0.00,,,-99.99,,2013-01-26 00:11:00,
2013-01-25 18:22:00,14.0,1.0,-100.00,NNW,335,12.0,18.0,57,0.00,,,-99.99,,2013-01-26 00:22:00,
2013-01-25 18:32:00,13.0,1.0,-100.00,NW,325,14.0,19.0,58,0.00,,,-99.99,,2013-01-26 00:32:00,
2013-01-25 18:42:00,13.0,2.0,-100.00,NW,325,14.0,21.0,59,0.00,,,-99.99,,2013-01-26 00:42:00,
2013-01-25 18:52:00,13.0,2.0,-100.00,NW,325,13.0,23.0,60,0.00,,,-99.99,,2013-01-26 00:52:00,
2013-01-25 19:01:00,12.0,2.0,-100.00,NW,325,16.0,22.0,61,0.00,,,-99.99,,2013-01-26 01:01:00,
2013-01-25 19:11:00,12.0,2.0,-100.00,NNW,330,16.0,21.0,62,0.00,,,-99.99,,2013-01-26 01:11:00,
2013-01-25 19:22:00,11.0,1.0,-100.00,NW,325,16.0,22.0,63,0.00,,,-99.99,,2013-01-26 01:22:00,
2013-01-25 19:32:00,11.0,1.0,-100.00,NW,320,16.0,21.0,64,0.00,,,-99.99,,2013-01-26 01:32:00,
2013-01-25 19:42:00,11.0,1.0,-100.00,NW,325,17.0,22.0,64,0.00,,,-99.99,,2013-01-26 01:42:00,
2013-01-25 19:52:00,10.0,1.0,-100.00,NW,325,16.0,21.0,65,0.00,,,-99.99,,2013-01-26 01:52:00,
2013-01-25 20:01:00,10.0,1.0,-100.00,NNW,330,13.0,19.0,66,0.00,,,-99.99,,2013-01-26 02:01:00,
2013-01-25 20:11:00,10.0,1.0,-100.00,NNW,330,14.0,21.0,67,0.00,,,-99.99,,2013-01-26 02:11:00,
2013-01-25 20:22:00,10.0,1.0,-100.00,NNW,330,12.0,18.0,67,0.00,,,-99.99,,2013-01-26 02:22:00,
2013-01-25 20:32:00,9.0,1.0,-100.00,NNW,330,9.0,14.0,68,0.00,,,-99.99,,2013-01-26 02:32:00,
2013-01-25 20:42:00,9.0,1.0,-100.00,NW,325,12.0,17.0,69,0.00,,,-99.99,,2013-01-26 02:42:00,
2013-01-25 20:52:00,9.0,1.0,-100.00,NW,320,11.0,15.0,71,0.00,,,-99.99,,2013-01-26 02:52:00,
2013-01-25 21:02:00,8.0,1.0,-100.00,NW,320,13.0,16.0,71,0.00,,,-99.99,,2013-01-26 03:02:00,
2013-01-25 21:11:00,8.0,1.0,-100.00,NNW,330,9.0,20.0,71,0.00,,,-99.99,,2013-01-26 03:11:00,
2013-01-25 21:21:00,8.0,1.0,-100.00,NNW,330,9.0,17.0,71,0.00,,,-99.99,,2013-01-26 03:21:00,
2013-01-25 21:31:00,8.0,1.0,-100.00,NW,325,10.0,16.0,71,0.00,,,-99.99,,2013-01-26 03:31:00,
2013-01-25 21:43:00,8.0,1.0,-100.00,NNW,335,10.0,17.0,72,0.00,,,-99.99,,2013-01-26 03:43:00,
2013-01-25 21:51:00,8.0,1.0,-100.00,NNW,335,8.0,13.0,72,0.00,,,-99.99,,2013-01-26 03:51:00,
2013-01-25 22:02:00,8.0,1.0,-100.00,NW,320,8.0,12.0,73,0.00,,,-99.99,,2013-01-26 04:02:00,
2013-01-25 22:12:00,7.0,0.0,-100.00,NNW,330,7.0,12.0,73,0.00,,,-99.99,,2013-01-26 04:12:00,
2013-01-25 22:21:00,6.0,0.0,-100.00,NW,320,8.0,11.0,74,0.00,,,-99.99,,2013-01-26 04:21:00,
2013-01-25 22:32:00,6.0,0.0,-100.00,NW,315,7.0,11.0,75,0.00,,,-99.99,,2013-01-26 04:32:00,
2013-01-25 22:42:00,6.0,0.0,-100.00,NW,325,9.0,11.0,76,0.00,,,-99.99,,2013-01-26 04:42:00,
2013-01-25 22:52:00,6.0,1.0,-100.00,NNW,340,6.0,12.0,76,0.00,,,-99.99,,2013-01-26 04:52:00,
2013-01-25 23:03:00,6.0,1.0,-100.00,NW,325,9.0,11.0,76,0.00,,,-99.99,,2013-01-26 05:03:00,
2013-01-25 23:12:00,6.0,0.0,-100.00,NNW,335,6.0,10.0,76,0.00,,,-99.99,,2013-01-26 05:12:00,
2013-01-25 23:23:00,6.0,0.0,-100.00,NNW,330,6.0,11.0,77,0.00,,,-99.99,,2013-01-26 05:23:00,
2013-01-25 23:33:00,6.0,0.0,-100.00,NNW,330,6.0,11.0,77,0.00,,,-99.99,,2013-01-26 05:33:00,
2013-01-25 23:41:00,6.0,0.0,-100.00,NNW,330,6.0,11.0,77,0.00,,,-99.99,,2013-01-26 05:41:00,
2013-01-25 23:52:00,6.0,0.0,-100.00,NNW,330,6.0,11.0,77,0.00,,,-99.99,,2013-01-26 05:52:00,